Weather History for KEFD - June, 2013

Change the Weather History Date:

Sunday, June 30, 2013

  Actual Average Record
Temperature  
Mean Temperature 90 °F -  
Max Temperature 100 °F 89 °F 100 °F (2013)
Min Temperature 80 °F 72 °F 71 °F (2015)
Cooling Degree Days 25    
Growing Degree Days 40 (Base 50)    
Moisture  
Dew Point 63 °F    
Average Humidity 42    
Maximum Humidity 74    
Minimum Humidity 25    
Precipitation  
Precipitation 0.00 in - - ()
Sea Level Pressure  
Sea Level Pressure 29.83 in    
Wind  
Wind Speed 4 mph (NW)    
Max Wind Speed 14 mph    
Max Gust Speed -    
Visibility 10 miles    
Events      
Averages and records for this station are not official NWS values.
T = Trace of Precipitation, MM = Missing Value Source: NWS Daily Summary

Daily Weather History Graph

Daily Weather History Graph

Search for Another Location

Airport or City:

Trip Planner

Search our weather history database for the weather conditions in past years. The results will help you decide how hot, cold, wet, or windy it might be!

Date:

Astronomy

Jun. 30, 2013 Rise Set
Actual Time 6:23 AM CDT 8:24 PM CDT
Civil Twilight 5:56 AM CDT 8:52 PM CDT
Nautical Twilight 5:23 AM CDT 9:25 PM CDT
Astronomical Twilight 4:48 AM CDT 10:00 PM CDT
Moon 1:01 AM CDT (6/30) 1:59 PM CDT (6/30)
Length of Visible Light 14h 55m
Length of Day
14h 01m
Last Quarter, 45% of the Moon is Illuminated
Jun 30
Last Quarter
Jul 8
New
Jul 15
First Quarter
Jul 22
Full
Jul 29
Last Quarter

Hourly Weather History & Observations

Time (CDT) Temp. Heat Index Dew Point Humidity Pressure Visibility Wind Dir Wind Speed Gust Speed Precip Events Conditions
12:50 AM 84.2 °F 90.9 °F 73.4 °F 70% 29.81 in 10.0 mi WSW 4.6 mph - N/A   Scattered Clouds
1:50 AM 84.2 °F 90.9 °F 73.4 °F 70% 29.81 in 10.0 mi WNW 4.6 mph - N/A   Partly Cloudy
2:50 AM 82.4 °F 88.2 °F 73.4 °F 74% 29.80 in 10.0 mi Calm Calm - N/A   Clear
4:50 AM 84.2 °F 88.4 °F 69.8 °F 62% 29.81 in 10.0 mi Calm Calm - N/A   Mostly Cloudy
5:50 AM 82.4 °F 86.3 °F 69.8 °F 66% 29.82 in 10.0 mi Calm Calm - N/A   Mostly Cloudy
6:50 AM 80.6 °F 83.2 °F 68.0 °F 65% 29.84 in 10.0 mi Calm Calm - N/A   Scattered Clouds
7:50 AM 86.0 °F 90.4 °F 69.8 °F 58% 29.84 in 10.0 mi Calm Calm - N/A   Scattered Clouds
8:50 AM 93.2 °F 98.8 °F 69.8 °F 46% 29.84 in 10.0 mi East 5.8 mph - N/A   Scattered Clouds
9:50 AM 95.0 °F 101.3 °F 69.8 °F 44% 29.85 in 10.0 mi Calm Calm - N/A   Mostly Cloudy
10:50 AM 95.0 °F 95.2 °F 60.8 °F 32% 29.88 in 10.0 mi Calm Calm - N/A   Mostly Cloudy
11:50 AM 95.0 °F 95.2 °F 60.8 °F 32% 29.87 in 10.0 mi Calm Calm - N/A   Mostly Cloudy
12:50 PM 96.8 °F 96.2 °F 59.0 °F 28% 29.86 in 10.0 mi NW 5.8 mph - N/A   Mostly Cloudy
1:50 PM 96.8 °F 95.8 °F 57.2 °F 27% 29.84 in 10.0 mi NW 6.9 mph - N/A   Mostly Cloudy
2:50 PM 98.6 °F 97.6 °F 57.2 °F 25% 29.84 in 10.0 mi NW 9.2 mph - N/A   Mostly Cloudy
3:50 PM 98.6 °F 97.6 °F 57.2 °F 25% 29.83 in 10.0 mi West 6.9 mph - N/A   Mostly Cloudy
4:50 PM 98.6 °F 97.6 °F 57.2 °F 25% 29.81 in 10.0 mi NW 13.8 mph - N/A   Mostly Cloudy
5:50 PM 100.4 °F 100.2 °F 59.0 °F 25% 29.79 in 10.0 mi West 12.7 mph - N/A   Mostly Cloudy
6:50 PM 98.6 °F 98.5 °F 59.0 °F 27% 29.77 in 10.0 mi NNW 8.1 mph - N/A   Scattered Clouds
7:50 PM 95.0 °F 94.4 °F 59.0 °F 30% 29.78 in 10.0 mi NNW 8.1 mph - N/A   Mostly Cloudy
8:50 PM 93.2 °F 91.9 °F 57.2 °F 30% 29.79 in 10.0 mi Calm Calm - N/A   Scattered Clouds
9:50 PM 91.4 °F 89.9 °F 57.2 °F 31% 29.82 in 10.0 mi North 4.6 mph - N/A   Scattered Clouds
10:50 PM 87.8 °F 86.5 °F 57.2 °F 35% 29.84 in 10.0 mi North 6.9 mph - N/A   Scattered Clouds
11:50 PM 87.8 °F 86.5 °F 57.2 °F 35% 29.85 in 10.0 mi NNE 8.1 mph - N/A   Scattered Clouds